[[{"header":{"parameterUnit":"m.s-1","parameterCategory":1,"la1":30.2991,"la2":30.254,"lo1":-89.0895,"lo2":-89.0444,"dy":0.0017,"dx":0.0017,"nx":28,"ny":28,"refTime":"2025-02-11T03:00:00:Z","depth":0,"parameterNumber":2,"parameterNumberName":"U-component_of_WINDS"},"data":[0,0,0,0,0,0,0,0,0,0,0,0,0,0,0,0,0,0,0,0,0,0,0,0,0,0,0,0,0,0,0,0,0,0,0,0,0,0,0,0,0,0,0,0,0,0,0,0,0,0,0,0,0,0,0,0,0,0,-2.1696,-2.1695,0,-2.1618,-2.1617,-2.1616,-2.1554,-2.1553,-2.1552,-2.1552,-2.1467,-2.1466,-2.1464,0,0,0,0,0,0,0,0,0,0,0,0,0,-2.1787,-2.1786,-2.1696,-2.1695,-2.1694,-2.1618,-2.1617,-2.1616,-2.1554,-2.1553,-2.1552,-2.1551,-2.1468,-2.1466,-2.1464,0,0,0,0,0,0,0,0,0,0,0,0,0,-2.1732,-2.1785,-2.1696,-2.1654,-2.165,-2.1618,-2.1617,-2.1616,-2.1554,-2.1553,-2.1552,-2.1551,-2.1469,-2.1466,-2.1464,-2.1467,0,0,-2.1456,-2.1455,0,0,0,0,0,0,0,0,-2.1735,-2.1729,-2.1661,-2.1657,-2.1652,-2.1595,-2.1618,-2.1566,-2.1554,-2.159,-2.1552,-2.1551,-2.151,-2.1504,-2.1491,-2.1463,-2.1459,-2.1456,-2.1454,-2.1453,-2.1453,0,0,0,0,0,0,0,-2.1739,-2.1732,-2.1665,-2.166,-2.1655,-2.1638,-2.1629,-2.1608,-2.1556,-2.1587,-2.1582,-2.1574,-2.1507,-2.1494,-2.1489,-2.1458,-2.1456,-2.1454,-2.1452,-2.1451,-2.1426,-2.1427,0,0,0,0,0,0,-2.175,-2.1735,-2.1668,-2.1663,-2.1692,-2.1637,-2.1627,-2.1614,-2.1556,-2.1547,-2.1575,-2.1571,-2.1499,-2.1492,-2.1486,-2.1484,-2.1453,-2.1451,-2.145,-2.1425,-2.1426,-2.1427,0,0,0,0,0,0,-2.1752,-2.1745,-2.1671,-2.1698,-2.1687,-2.1636,-2.1622,-2.1613,-2.1599,-2.1547,-2.1537,-2.1571,-2.1498,-2.1489,-2.1472,-2.148,-2.145,-2.1448,-2.1424,-2.1425,-2.1426,-2.1481,0,0,0,0,0,0,-2.1755,-2.1746,-2.1748,-2.1698,-2.1686,-2.166,-2.1623,-2.1612,-2.1596,-2.159,-2.1541,-2.1532,-2.1496,-2.1476,-2.1469,-2.1476,-2.1446,-2.1423,-2.1425,-2.1426,-2.1479,-2.1484,-2.1489,0,0,0,0,0,-2.1759,-2.1766,-2.1748,-2.174,-2.1687,-2.166,-2.1653,-2.1613,-2.1597,-2.1597,-2.1563,-2.1533,-2.1481,-2.1475,-2.1467,-2.1473,-2.1422,-2.1424,-2.1426,-2.1476,-2.1483,-2.1489,0,0,0,0,0,0,-2.1816,-2.1759,-2.1738,-2.173,-2.1701,-2.165,-2.1649,-2.1622,-2.1596,-2.1592,-2.1543,-2.1532,-2.1519,-2.1495,-2.1489,-2.1472,-2.1447,-2.1448,-2.1488,-2.1495,-2.15,-2.1505,-2.1444,0,0,0,0,0,-2.1828,-2.1813,-2.1763,-2.176,-2.1746,-2.1701,-2.1687,-2.166,-2.1626,-2.1613,-2.1578,-2.1546,-2.1522,-2.1507,-2.1483,-2.1475,-2.1462,-2.1476,-2.1481,-2.1486,-2.1486,-2.1478,-2.1482,-2.1433,-2.1433,-2.1433,0,0,-2.1852,-2.1819,-2.1812,-2.1771,-2.1744,-2.1728,-2.169,-2.1675,-2.1661,-2.161,-2.1591,-2.1565,-2.1526,-2.1513,-2.1506,-2.1492,-2.1497,-2.1488,-2.1492,-2.1489,-2.148,-2.1485,-2.1489,-2.1434,-2.1434,-2.1434,0,0,-2.1887,-2.1861,-2.1855,-2.183,-2.1791,-2.1761,-2.176,-2.1713,-2.1693,-2.1674,-2.1636,-2.1618,-2.1578,-2.1551,-2.1533,-2.1557,-2.1527,-2.155,-2.1577,-2.157,-2.1574,-2.1577,-2.1584,-2.1587,-2.1551,-2.1551,-2.1551,0,-2.1921,-2.1895,-2.1855,-2.1841,-2.1823,-2.1779,-2.1771,-2.1748,-2.1703,-2.1691,-2.1677,-2.1625,-2.1596,-2.1575,-2.1581,-2.1568,-2.1563,-2.1555,-2.1577,-2.158,-2.1582,-2.1587,-2.159,-2.1554,-2.1554,-2.1553,-2.1553,0,-2.1938,-2.1921,-2.192,-2.1879,-2.1861,-2.1851,-2.1807,-2.1794,-2.1768,-2.1738,-2.1718,-2.1682,-2.1648,-2.1641,-2.1615,-2.1616,-2.1608,-2.1587,-2.1561,-2.159,-2.1594,-2.1596,-2.1558,-2.1557,-2.1556,-2.1556,0,0,-2.2005,-2.1942,-2.1942,-2.1922,-2.1876,-2.1861,-2.1848,-2.1816,-2.1805,-2.1776,-2.1761,-2.1729,-2.1708,-2.1687,-2.1657,-2.1652,-2.167,-2.163,-2.1628,-2.1636,-2.1666,-2.1682,-2.1685,-2.1651,-2.1652,-2.1652,-2.1669,0,-2.203,-2.2005,-2.1969,-2.1955,-2.1937,-2.1894,-2.1882,-2.1852,-2.1824,-2.1804,-2.1773,-2.175,-2.1725,-2.1712,-2.1704,-2.167,-2.1675,-2.1668,-2.1635,-2.1635,-2.1644,-2.1687,-2.1704,-2.1721,-2.167,-2.1671,-2.1671,0,-2.2056,-2.203,-2.2015,-2.197,-2.1961,-2.1951,-2.1918,-2.19,-2.1864,-2.1844,-2.1821,-2.1789,-2.1771,-2.1749,-2.1722,-2.1718,-2.1702,-2.1683,-2.1683,-2.1676,-2.1653,-2.168,-2.1726,-2.1728,-2.1674,-2.1673,-2.1673,0,-2.2104,-2.2065,-2.2051,-2.2035,-2.1982,-2.1976,-2.1954,-2.1917,-2.19,-2.1871,-2.1859,-2.1828,-2.181,-2.1786,-2.1746,-2.1734,-2.1722,-2.1698,-2.1703,-2.1704,-2.17,-2.1701,-2.1743,-2.1695,-2.1695,-2.1695,-2.1695,0,-2.2135,-2.2127,-2.2071,-2.2062,-2.2051,-2.2009,-2.1998,-2.1971,-2.1939,-2.1923,-2.1884,-2.1869,-2.1818,-2.1796,-2.1765,-2.1746,-2.1739,-2.172,-2.1712,-2.1723,-2.1725,-2.171,-2.1707,-2.1695,-2.1695,-2.1695,-2.1695,0,-2.2186,-2.2149,-2.2129,-2.2081,-2.2069,-2.2063,-2.2021,-2.2009,-2.1979,-2.1959,-2.1951,-2.1904,-2.1877,-2.1835,-2.1795,-2.1773,-2.1759,-2.1746,-2.1771,-2.1765,-2.1772,-2.1771,-2.1804,-2.1806,-2.1759,-2.176,-2.176,0,-2.2207,-2.22,-2.2151,-2.2138,-2.2117,-2.2096,-2.2079,-2.2037,-2.2019,-2.1978,-2.1971,-2.1941,-2.1914,-2.1872,-2.1832,-2.1801,-2.1786,-2.18,-2.178,-2.1791,-2.1783,-2.1783,-2.1781,-2.1803,-2.1804,-2.1805,-2.1805,0,-2.2248,-2.2229,-2.2206,-2.2177,-2.2157,-2.2131,-2.2104,-2.2095,-2.2046,-2.2028,-2.2,-2.198,-2.1939,-2.1909,-2.1872,-2.1847,-2.1817,-2.1812,-2.1811,-2.1821,-2.1835,-2.1825,-2.1781,-2.1811,-2.181,-2.181,-2.1809,-2.1809,-2.2282,-2.2273,-2.2238,-2.2213,-2.2188,-2.2162,-2.2149,-2.2118,-2.2094,-2.2059,-2.2035,-2.2008,-2.197,-2.1918,-2.1894,-2.1871,-2.1859,-2.1858,-2.1857,-2.1857,-2.186,-2.1841,-2.1865,-2.1864,-2.1864,-2.1864,-2.1864,0,-2.2319,-2.2294,-2.2272,-2.2235,-2.2215,-2.2191,-2.2159,-2.2143,-2.212,-2.2089,-2.2063,-2.203,-2.2001,-2.196,-2.1926,-2.1915,-2.1901,-2.1908,-2.1907,-2.1901,-2.1874,-2.1877,-2.192,-2.192,-2.192,-2.192,-2.192,-2.192,-2.2336,-2.2318,-2.2296,-2.2265,-2.224,-2.2214,-2.2198,-2.2173,-2.2148,-2.2113,-2.2089,-2.2063,-2.2027,-2.199,-2.1961,-2.195,-2.1938,-2.1949,-2.1933,-2.1908,-2.1903,-2.1898,-2.1901,-2.1947,-2.1948,-2.1961,-2.1961,-2.1961]},{"header":{"parameterUnit":"m.s-1","parameterCategory":1,"la1":30.2991,"la2":30.254,"lo1":-89.0895,"lo2":-89.0444,"dy":0.0017,"dx":0.0017,"nx":28,"ny":28,"refTime":"2025-02-11T03:00:00:Z","depth":0,"parameterNumber":3,"parameterNumberName":"V-component_of_WINDS"},"data":[0,0,0,0,0,0,0,0,0,0,0,0,0,0,0,0,0,0,0,0,0,0,0,0,0,0,0,0,0,0,0,0,0,0,0,0,0,0,0,0,0,0,0,0,0,0,0,0,0,0,0,0,0,0,0,0,0,0,3.5281,3.5282,0,3.5421,3.5423,3.5424,3.5472,3.5472,3.5471,3.5471,3.5613,3.5617,3.5622,0,0,0,0,0,0,0,0,0,0,0,0,0,3.5056,3.506,3.5281,3.5283,3.5284,3.5421,3.5423,3.5425,3.5473,3.5472,3.5471,3.5471,3.5612,3.5617,3.5622,0,0,0,0,0,0,0,0,0,0,0,0,0,3.517,3.5061,3.528,3.5325,3.533,3.5421,3.5423,3.5425,3.5473,3.5472,3.5471,3.547,3.561,3.5616,3.5623,3.5679,0,0,3.5642,3.5645,0,0,0,0,0,0,0,0,3.5164,3.5179,3.5316,3.5322,3.5328,3.5429,3.5396,3.551,3.5473,3.5418,3.5471,3.547,3.5552,3.5563,3.5592,3.5686,3.5692,3.5643,3.5647,3.565,3.5652,0,0,0,0,0,0,0,3.5156,3.5173,3.5336,3.5318,3.5325,3.5338,3.5353,3.5418,3.5488,3.5423,3.5427,3.5443,3.5555,3.5585,3.5595,3.5694,3.5643,3.5649,3.5653,3.5655,3.5848,3.5849,0,0,0,0,0,0,3.514,3.5166,3.5332,3.5341,3.5242,3.5343,3.536,3.5397,3.5488,3.5501,3.5444,3.5445,3.5575,3.5588,3.56,3.5677,3.565,3.5656,3.5659,3.5846,3.5848,3.5849,0,0,0,0,0,0,3.5135,3.5155,3.5326,3.5254,3.5277,3.5348,3.5389,3.54,3.543,3.5503,3.5516,3.5461,3.5575,3.5591,3.5661,3.5682,3.5659,3.5665,3.5845,3.5847,3.5849,3.5826,0,0,0,0,0,0,3.5129,3.5153,3.5174,3.5255,3.5281,3.5383,3.539,3.5404,3.5441,3.5444,3.5523,3.5535,3.5575,3.5651,3.5667,3.569,3.567,3.5843,3.5846,3.5848,3.5825,3.5827,3.5828,0,0,0,0,0,3.5121,3.516,3.5175,3.5195,3.5309,3.5384,3.5399,3.5445,3.5443,3.5466,3.5514,3.5533,3.5677,3.5657,3.5676,3.5702,3.5842,3.5845,3.5848,3.5825,3.5827,3.5828,0,0,0,0,0,0,3.5078,3.5172,3.5188,3.5256,3.5312,3.5392,3.5422,3.5445,3.5502,3.5502,3.5556,3.5573,3.5639,3.5677,3.5654,3.5764,3.5761,3.5767,3.5737,3.5739,3.5741,3.5731,3.5675,0,0,0,0,0,3.5077,3.5131,3.5209,3.5261,3.5289,3.5351,3.5385,3.5416,3.5476,3.5499,3.5552,3.5609,3.5669,3.5706,3.5763,3.5831,3.5851,3.5858,3.586,3.5861,3.5866,3.591,3.5915,3.5858,3.5858,3.5858,0,0,3.5075,3.5132,3.5162,3.5254,3.5301,3.5357,3.537,3.5426,3.5469,3.5508,3.5578,3.5618,3.5687,3.5757,3.579,3.579,3.5887,3.5864,3.5864,3.587,3.5913,3.5918,3.5923,3.586,3.586,3.586,0,0,3.5099,3.5147,3.5197,3.5246,3.5318,3.536,3.5372,3.545,3.548,3.5551,3.5583,3.5634,3.5733,3.5782,3.5819,3.5868,3.5889,3.5885,3.5893,3.5935,3.5939,3.5944,3.5964,3.5971,3.589,3.589,3.589,0,3.5086,3.5171,3.522,3.5277,3.5318,3.5358,3.5412,3.5456,3.5542,3.557,3.557,3.5699,3.5747,3.5831,3.5843,3.5871,3.5889,3.5876,3.5935,3.594,3.5944,3.5965,3.5972,3.5889,3.5889,3.5889,3.5889,0,3.5154,3.5212,3.5245,3.5331,3.5375,3.5429,3.5488,3.5528,3.5556,3.5598,3.5673,3.5733,3.5806,3.5828,3.5854,3.5917,3.5916,3.5924,3.5922,3.5948,3.5969,3.5976,3.5888,3.5888,3.5889,3.5889,0,0,3.5152,3.5269,3.528,3.5322,3.5407,3.5453,3.5511,3.5584,3.5619,3.5678,3.573,3.5815,3.5826,3.5868,3.5901,3.5937,3.5977,3.5942,3.5945,3.5949,3.6055,3.6049,3.6057,3.5992,3.5993,3.5995,3.605,0,3.5189,3.5295,3.5344,3.5428,3.5485,3.5527,3.5578,3.5637,3.5679,3.5734,3.5781,3.5842,3.5849,3.5876,3.5913,3.5964,3.5999,3.596,3.6042,3.6044,3.6025,3.6067,3.6061,3.611,3.6058,3.6059,3.606,0,3.5245,3.5309,3.54,3.5484,3.5509,3.5554,3.5628,3.5679,3.5748,3.5777,3.5827,3.586,3.5925,3.5918,3.601,3.5983,3.6019,3.605,3.6053,3.6063,3.6055,3.6081,3.6127,3.6135,3.6073,3.6072,3.6071,0,3.5239,3.5346,3.5416,3.545,3.5549,3.558,3.5623,3.5691,3.5733,3.5798,3.5827,3.5897,3.5936,3.599,3.6042,3.6032,3.613,3.6127,3.6158,3.6157,3.6177,3.6175,3.6231,3.6197,3.6197,3.6196,3.6196,0,3.5276,3.533,3.5416,3.5458,3.5523,3.5579,3.5641,3.5686,3.5748,3.5802,3.5841,3.5891,3.5956,3.6014,3.6055,3.6127,3.6143,3.617,3.6181,3.6168,3.6165,3.6193,3.6192,3.6199,3.6198,3.6198,3.6197,0,3.5279,3.5337,3.5417,3.5506,3.553,3.5573,3.5649,3.5694,3.574,3.5808,3.5827,3.5899,3.5971,3.6028,3.6121,3.6149,3.6225,3.6236,3.6202,3.6208,3.6237,3.6234,3.6314,3.6329,3.6283,3.6283,3.6283,0,3.5299,3.5343,3.5438,3.5478,3.5521,3.5583,3.5629,3.5687,3.5733,3.5818,3.5853,3.5928,3.5991,3.6104,3.6165,3.6237,3.6251,3.6275,3.6262,3.625,3.6255,3.6253,3.6259,3.6276,3.6276,3.6276,3.6276,0,3.5329,3.5358,3.5422,3.5498,3.5551,3.5613,3.5675,3.5706,3.5776,3.5826,3.5901,3.595,3.6048,3.6123,3.6202,3.6247,3.6275,3.628,3.6292,3.6279,3.626,3.6274,3.6209,3.6278,3.6278,3.6278,3.6278,3.6277,3.5343,3.5386,3.5462,3.5533,3.5587,3.5646,3.5694,3.5748,3.5812,3.5897,3.5928,3.6006,3.6079,3.619,3.6236,3.6298,3.6301,3.6316,3.6321,3.6324,3.6324,3.6249,3.6313,3.6313,3.6313,3.6313,3.6313,0,3.5378,3.543,3.5495,3.5584,3.5642,3.5664,3.5737,3.5783,3.5852,3.5918,3.5981,3.607,3.6144,3.6213,3.6291,3.6329,3.6344,3.6347,3.6346,3.6357,3.6316,3.63,3.6334,3.6334,3.6334,3.6334,3.6334,3.6334,3.5403,3.5479,3.5517,3.5622,3.5673,3.5752,3.5792,3.5848,3.5901,3.5999,3.6063,3.6108,3.6176,3.6261,3.6331,3.635,3.6378,3.6379,3.6401,3.6362,3.6359,3.6356,3.6341,3.6384,3.6384,3.6437,3.6438,3.6438]}]]